ELEKTRON 3 DEB, 831

Orbit data source: Space-Track

ELEKTRON 3 DEB, 831 is space debris in LEO originally from a launch on Fri, 10 Jul 1964 UTC launched from the Tyuratam Missile And Space Complex (TTMTR). Debris objects in space refer to the collection of defunct objects orbiting the Earth. Examples of debris include non-operational satellites, rocket bodies, and fragments generated from explosions, collisions, or faulty payload assembly.

Loading next visibility...
Identifier
831, 1964-038C
Orbit
LEO
Country
Flag of CISCIS
Related business
Manufacturer
OKB-1
Mission
Spacecraft
Bus & Motor
ADAPTER, Unknown motor
Mass
Unknown
Launch date (UTC)
1964-07-10 (62 years ago)
Launch vehicle
Unknown
Launch site
Tyuratam Missile And Space Complex (TTMTR)
Object type
Payload
Rocket body
Debris
Shape & HBR
Unknown shape, 0.3 m
Radar Cross Section
Medium (>0.1 m² and <1 m²)

Expand to show TLE details & history
Last TLE update: 7 hours ago

TLE from 7 hours ago
0 ELEKTRON 3 DEB
1 00831U 64038C   26127.83249993  .00010105  00000-0  90175-3 0  9990
2 00831  60.6669 293.5890 1245943   5.5311 355.8053 12.81190568360768
Epoch: 2026-05-07T19:58Z
TLE epoch observation values (Epoch: 2026-05-07T19:58:47.993Z)
Latitude
-0.00007°
Longitude
128.21601°
Altitude
380.265 km
Speed
8.145 km/s
True Right ascension
19h 34m 21s
True Declination
0° 00' 00"
Sunlit
Object was in full shadow at epoch
Visualization orbit readout
Latitude
Unknown
Longitude
Unknown
Altitude
Unknown
Speed
Unknown
Apparent Right ascension
Unknown
Apparent Declination
Unknown
Sunlit
N/A
Visualization observer readout
Local Sidereal Time
11:21:58
Azimuth
Unknown
Elevation
Unknown
Doppler factor
Unknown
Orbital elements
Apogee altitude
2,296.995 km
Perigee altitude
374.752 km
Semi-major axis
7,714.01 km
Eccentricity
0.12459
Inclination
60.6669°
RAAN
293.589°
Arg. of periapsis
5.5311°
True anomaly
354.57074°
Mean anomaly
355.8053°
Eccentric anomaly
355.20907°
Mean motion
3.20349 °/min
Orbital period
112.38 mins
BSTAR
0.00090175
Loading maneuver chart data...
Computing Atmospheric mass density...
Loading historical data...
Loading historical data...
Loading historical data...
Loading historical data...
Loading historical data...
Loading historical data...
Loading historical data...

Documentation

Showing up to 5 results
|